Time,TemperatureF,DewpointF,PressureIn,WindDirection,WindDirectionDegrees,WindSpeedMPH,WindSpeedGustMPH,Humidity,HourlyPrecipIn,Conditions,Clouds,dailyrainin,SoftwareType,DateUTC
2017-02-24 00:07:00,62.5,57.0,29.70,SE,143,0.0,2.0,83,0.00,,,0.00,weatherlink.com 1.10,2017-02-24 05:07:00,
2017-02-24 00:22:00,62.2,57.0,29.70,SSE,149,1.0,3.0,83,0.00,,,0.00,weatherlink.com 1.10,2017-02-24 05:22:00,
2017-02-24 00:37:00,61.7,57.0,29.70,SSE,149,1.0,2.0,84,0.00,,,0.00,weatherlink.com 1.10,2017-02-24 05:37:00,
2017-02-24 00:52:00,61.6,56.0,29.70,SW,221,1.0,4.0,83,0.00,,,0.00,weatherlink.com 1.10,2017-02-24 05:52:00,
2017-02-24 01:07:00,61.8,56.0,29.69,SW,226,1.0,3.0,82,0.00,,,0.00,weatherlink.com 1.10,2017-02-24 06:07:00,
2017-02-24 01:22:00,62.0,56.0,29.70,SW,230,1.0,4.0,81,0.00,,,0.00,weatherlink.com 1.10,2017-02-24 06:22:00,
2017-02-24 01:37:00,62.2,56.0,29.69,South,185,2.0,5.0,81,0.00,,,0.00,weatherlink.com 1.10,2017-02-24 06:37:00,
2017-02-24 01:52:00,62.1,56.0,29.70,SW,229,1.0,3.0,80,0.00,,,0.00,weatherlink.com 1.10,2017-02-24 06:52:00,
2017-02-24 02:07:00,61.6,56.0,29.70,SW,223,0.0,2.0,81,0.00,,,0.00,weatherlink.com 1.10,2017-02-24 07:07:00,
2017-02-24 02:22:00,60.4,55.0,29.70,SW,223,0.0,0.0,83,0.00,,,0.00,weatherlink.com 1.10,2017-02-24 07:22:00,
2017-02-24 02:37:00,60.2,55.0,29.70,SW,223,0.0,1.0,84,0.00,,,0.00,weatherlink.com 1.10,2017-02-24 07:37:00,
2017-02-24 02:52:00,60.0,55.0,29.70,SW,223,0.0,1.0,83,0.00,,,0.00,weatherlink.com 1.10,2017-02-24 07:52:00,
2017-02-24 03:07:00,59.4,55.0,29.70,South,182,2.0,2.0,85,0.00,,,0.00,weatherlink.com 1.10,2017-02-24 08:07:00,
2017-02-24 03:22:00,59.8,55.0,29.69,South,182,0.0,2.0,84,0.00,,,0.00,weatherlink.com 1.10,2017-02-24 08:22:00,
2017-02-24 03:37:00,59.5,54.0,29.69,SSW,202,0.0,3.0,83,0.00,,,0.00,weatherlink.com 1.10,2017-02-24 08:37:00,
2017-02-24 03:52:00,59.7,55.0,29.70,SSW,198,1.0,3.0,83,0.00,,,0.00,weatherlink.com 1.10,2017-02-24 08:52:00,
2017-02-24 04:07:00,59.6,54.0,29.69,SSW,210,2.0,6.0,83,0.00,,,0.00,weatherlink.com 1.10,2017-02-24 09:07:00,
2017-02-24 04:22:00,59.5,54.0,29.69,SSW,198,1.0,2.0,83,0.00,,,0.00,weatherlink.com 1.10,2017-02-24 09:22:00,
2017-02-24 04:37:00,59.8,55.0,29.67,SSE,163,0.0,5.0,83,0.00,,,0.00,weatherlink.com 1.10,2017-02-24 09:37:00,
2017-02-24 04:52:00,59.6,54.0,29.67,West,273,1.0,3.0,82,0.00,,,0.00,weatherlink.com 1.10,2017-02-24 09:52:00,
2017-02-24 05:07:00,59.8,54.0,29.67,South,187,0.0,4.0,82,0.00,,,0.00,weatherlink.com 1.10,2017-02-24 10:07:00,
2017-02-24 05:22:00,60.0,55.0,29.67,SSW,211,2.0,5.0,82,0.00,,,0.00,weatherlink.com 1.10,2017-02-24 10:22:00,
2017-02-24 05:37:00,60.0,54.0,29.67,WSW,255,0.0,5.0,81,0.00,,,0.00,weatherlink.com 1.10,2017-02-24 10:37:00,
2017-02-24 05:52:00,60.0,55.0,29.68,SSW,198,2.0,7.0,82,0.00,,,0.00,weatherlink.com 1.10,2017-02-24 10:52:00,
2017-02-24 06:07:00,59.9,54.0,29.67,South,188,0.0,5.0,81,0.00,,,0.00,weatherlink.com 1.10,2017-02-24 11:07:00,
2017-02-24 06:22:00,59.6,54.0,29.68,SSW,202,2.0,4.0,82,0.00,,,0.00,weatherlink.com 1.10,2017-02-24 11:22:00,
2017-02-24 06:37:00,59.6,54.0,29.68,SW,219,2.0,4.0,82,0.00,,,0.00,weatherlink.com 1.10,2017-02-24 11:37:00,
2017-02-24 06:52:00,59.6,54.0,29.67,SSE,166,4.0,5.0,82,0.00,,,0.00,weatherlink.com 1.10,2017-02-24 11:52:00,
2017-02-24 07:07:00,59.7,54.0,29.67,SSW,198,1.0,3.0,82,0.00,,,0.00,weatherlink.com 1.10,2017-02-24 12:07:00,
2017-02-24 07:22:00,59.5,54.0,29.67,South,184,1.0,3.0,82,0.00,,,0.00,weatherlink.com 1.10,2017-02-24 12:22:00,
2017-02-24 07:37:00,59.5,54.0,29.67,South,173,1.0,5.0,83,0.00,,,0.00,weatherlink.com 1.10,2017-02-24 12:37:00,
2017-02-24 07:52:00,59.6,54.0,29.67,South,169,0.0,5.0,83,0.00,,,0.00,weatherlink.com 1.10,2017-02-24 12:52:00,
2017-02-24 08:07:00,60.4,55.0,29.67,South,183,2.0,7.0,82,0.00,,,0.00,weatherlink.com 1.10,2017-02-24 13:07:00,
2017-02-24 08:22:00,61.2,55.0,29.68,SSW,213,0.0,5.0,80,0.00,,,0.00,weatherlink.com 1.10,2017-02-24 13:22:00,
2017-02-24 08:37:00,61.9,55.0,29.68,SW,214,2.0,7.0,79,0.00,,,0.00,weatherlink.com 1.10,2017-02-24 13:37:00,
2017-02-24 08:52:00,63.2,56.0,29.68,SW,227,3.0,9.0,76,0.00,,,0.00,weatherlink.com 1.10,2017-02-24 13:52:00,
2017-02-24 09:07:00,64.1,56.0,29.68,SSW,200,3.0,7.0,75,0.00,,,0.00,weatherlink.com 1.10,2017-02-24 14:07:00,
2017-02-24 09:22:00,64.9,56.0,29.68,South,185,2.0,11.0,74,0.00,,,0.00,weatherlink.com 1.10,2017-02-24 14:22:00,
2017-02-24 09:37:00,66.5,57.0,29.68,SW,216,4.0,8.0,72,0.00,,,0.00,weatherlink.com 1.10,2017-02-24 14:37:00,
2017-02-24 09:52:00,66.9,57.0,29.67,SSE,168,6.0,12.0,71,0.00,,,0.00,weatherlink.com 1.10,2017-02-24 14:52:00,
2017-02-24 10:08:00,67.8,57.0,29.67,SSW,194,8.0,12.0,69,0.00,,,0.00,weatherlink.com 1.10,2017-02-24 15:08:00,
2017-02-24 10:23:00,68.3,58.0,29.66,SSW,211,5.0,14.0,69,0.00,,,0.00,weatherlink.com 1.10,2017-02-24 15:23:00,
2017-02-24 10:39:00,69.5,58.0,29.65,SSW,193,7.0,12.0,67,0.00,,,0.00,weatherlink.com 1.10,2017-02-24 15:39:00,
2017-02-24 10:53:00,69.5,58.0,29.64,SSW,200,5.0,13.0,66,0.00,,,0.00,weatherlink.com 1.10,2017-02-24 15:53:00,
2017-02-24 11:08:00,70.3,59.0,29.63,South,173,7.0,18.0,67,0.00,,,0.00,weatherlink.com 1.10,2017-02-24 16:08:00,
2017-02-24 11:23:00,70.8,58.0,29.62,SSW,201,8.0,18.0,65,0.00,,,0.00,weatherlink.com 1.10,2017-02-24 16:23:00,
2017-02-24 11:38:00,71.5,58.0,29.62,SSW,192,7.0,17.0,63,0.00,,,0.00,weatherlink.com 1.10,2017-02-24 16:38:00,
2017-02-24 11:53:00,72.4,58.0,29.61,SSW,212,5.0,18.0,61,0.00,,,0.00,weatherlink.com 1.10,2017-02-24 16:53:00,
2017-02-24 12:08:00,72.5,57.0,29.61,SSW,192,10.0,17.0,59,0.00,,,0.00,weatherlink.com 1.10,2017-02-24 17:08:00,
2017-02-24 12:23:00,73.4,57.0,29.60,SW,219,10.0,17.0,57,0.00,,,0.00,weatherlink.com 1.10,2017-02-24 17:23:00,
2017-02-24 12:38:00,73.7,57.0,29.59,South,182,5.0,20.0,56,0.00,,,0.00,weatherlink.com 1.10,2017-02-24 17:38:00,
2017-02-24 12:53:00,74.1,56.0,29.58,SSW,192,8.0,18.0,54,0.00,,,0.00,weatherlink.com 1.10,2017-02-24 17:53:00,
2017-02-24 13:08:00,74.5,57.0,29.57,SSW,193,12.0,19.0,54,0.00,,,0.00,weatherlink.com 1.10,2017-02-24 18:08:00,
2017-02-24 13:23:00,75.1,56.0,29.56,SSW,197,4.0,16.0,52,0.00,,,0.00,weatherlink.com 1.10,2017-02-24 18:23:00,
2017-02-24 13:38:00,75.5,56.0,29.55,SW,226,7.0,13.0,51,0.00,,,0.00,weatherlink.com 1.10,2017-02-24 18:38:00,
2017-02-24 13:53:00,75.9,56.0,29.54,SW,229,12.0,17.0,51,0.00,,,0.00,weatherlink.com 1.10,2017-02-24 18:53:00,
2017-02-24 14:09:00,76.0,56.0,29.54,South,185,6.0,18.0,51,0.00,,,0.00,weatherlink.com 1.10,2017-02-24 19:09:00,
2017-02-24 14:23:00,76.9,56.0,29.53,SSW,198,6.0,17.0,48,0.00,,,0.00,weatherlink.com 1.10,2017-02-24 19:23:00,
2017-02-24 14:38:00,77.5,56.0,29.52,WSW,245,9.0,12.0,48,0.00,,,0.00,weatherlink.com 1.10,2017-02-24 19:38:00,
2017-02-24 14:54:00,77.3,56.0,29.52,SSW,200,8.0,15.0,48,0.00,,,0.00,weatherlink.com 1.10,2017-02-24 19:54:00,
2017-02-24 15:09:00,76.6,55.0,29.51,WSW,246,8.0,17.0,48,0.00,,,0.00,weatherlink.com 1.10,2017-02-24 20:09:00,